Weather History for Selawik, AK

Change the Weather History Date:

Monday, February 11, 2013

  Actual Average Record
Temperature  
Mean Temperature -6 °F -  
Max Temperature 6 °F 5 °F 33 °F (2004)
Min Temperature -18 °F -3 °F -32 °F (2005)
Degree Days  
Heating Degree Days 71    
Moisture  
Dew Point -13 °F    
Average Humidity 82    
Maximum Humidity 100    
Minimum Humidity 60    
Precipitation  
Precipitation 0.00 in - - ()
Sea Level Pressure  
Sea Level Pressure 29.68 in    
Wind  
Wind Speed 10 mph (ENE)    
Max Wind Speed 18 mph    
Max Gust Speed 21 mph    
Visibility 10 miles    
Events      
Averages and records for this station are not official NWS values.
T = Trace of Precipitation, MM = Missing Value Source: NWS Daily Summary

Daily Weather History Graph

Daily Weather History Graph

Search for Another Location

Airport:

Trip Planner

Search our weather history database for the weather conditions in past years. The results will help you decide how hot, cold, wet, or windy it might be!

Date:

Astronomy

Feb. 11, 2013 Rise Set
Actual Time 10:01 AM AKST 5:47 PM AKST
Civil Twilight 9:03 AM AKST 6:46 PM AKST
Nautical Twilight 8:00 AM AKST 7:49 PM AKST
Astronomical Twilight 7:00 AM AKST 8:49 PM AKST
Moon 9:24 AM AKST (2/11) 9:19 PM AKST (2/11)
Length of Visible Light 9h 43m
Length of Day
7h 45m
Waxing Crescent, 3% of the Moon is Illuminated
Feb 11
Waxing Crescent
Feb 17
First Quarter
Feb 25
Full
Mar 4
Last Quarter
Mar 11
New

Hourly Weather History & Observations

Time (AKST) Temp. Windchill Dew Point Humidity Pressure Visibility Wind Dir Wind Speed Gust Speed Precip Events Conditions
12:16 AM 6.8 °F -6.9 °F 1.4 °F 79% 29.47 in 8.0 mi SSE 9.2 mph - N/A   Overcast
12:36 AM 3.2 °F -14.6 °F -2.2 °F 78% 29.48 in 10.0 mi South 13.8 mph - N/A   Mostly Cloudy
12:56 AM 3.2 °F -16.5 °F -2.2 °F 78% 29.49 in 9.0 mi South 17.3 mph - N/A   Partly Cloudy
1:16 AM 3.2 °F -15.9 °F -0.4 °F 85% 29.51 in 10.0 mi South 16.1 mph - N/A   Mostly Cloudy
1:36 AM 1.4 °F -15.3 °F -2.2 °F 85% 29.53 in 10.0 mi South 11.5 mph - N/A   Overcast
1:56 AM 1.4 °F -17.6 °F -5.8 °F 72% 29.54 in 10.0 mi South 15.0 mph 20.7 mph N/A   Mostly Cloudy
2:16 AM -0.4 °F -16.7 °F -4.0 °F 85% 29.56 in 10.0 mi SSW 10.4 mph - N/A   Scattered Clouds
2:36 AM -0.4 °F -13.4 °F -5.8 °F 78% 29.58 in 10.0 mi SSW 6.9 mph - N/A   Scattered Clouds
2:56 AM -2.2 °F -14.2 °F -9.4 °F 71% 29.59 in 10.0 mi SSE 5.8 mph - N/A   Partly Cloudy
3:16 AM -2.2 °F - -13.0 °F 60% 29.59 in 10.0 mi Calm Calm - N/A   Clear
3:36 AM -2.2 °F -16.8 °F -9.4 °F 71% 29.61 in 10.0 mi West 8.1 mph - N/A   Clear
3:56 AM -2.2 °F -18.0 °F -7.6 °F 78% 29.62 in 10.0 mi WSW 9.2 mph - N/A   Clear
4:16 AM -4.0 °F -17.8 °F -9.4 °F 78% 29.63 in 10.0 mi SSE 6.9 mph - N/A   Clear
4:36 AM -5.8 °F -22.4 °F -13.0 °F 71% 29.64 in 10.0 mi ESE 9.2 mph - N/A   Clear
4:56 AM -7.6 °F -24.6 °F -14.8 °F 71% 29.64 in 10.0 mi East 9.2 mph - N/A   Clear
5:16 AM -7.6 °F -22.1 °F -11.2 °F 84% 29.64 in 10.0 mi ENE 6.9 mph - N/A   Clear
5:36 AM -7.6 °F -20.6 °F -9.4 °F 92% 29.64 in 10.0 mi ENE 5.8 mph - N/A   Clear
5:56 AM -7.6 °F - -16.6 °F 65% 29.66 in 10.0 mi Calm Calm - N/A   Clear
6:16 AM -11.2 °F - -16.6 °F 77% 29.66 in 10.0 mi Calm Calm - N/A   Clear
6:36 AM -13.0 °F -27.0 °F -18.4 °F 77% 29.66 in 10.0 mi NNE 5.8 mph - N/A   Clear
6:56 AM -14.8 °F -33.5 °F -20.2 °F 77% 29.67 in 10.0 mi NNE 9.2 mph - N/A   Clear
7:16 AM -14.8 °F -33.5 °F -16.6 °F 92% 29.67 in 10.0 mi NNE 9.2 mph - N/A   Clear
7:36 AM -14.8 °F -30.8 °F -16.6 °F 92% 29.68 in 10.0 mi ENE 6.9 mph - N/A   Clear
7:56 AM -16.6 °F -29.3 °F -20.2 °F 84% 29.68 in 10.0 mi NNE 4.6 mph - N/A   Clear
8:16 AM -16.6 °F -26.8 °F -18.4 °F 92% 29.70 in 10.0 mi ENE 3.5 mph - N/A   Clear
8:36 AM -16.6 °F -29.3 °F -22.0 °F 76% 29.70 in 10.0 mi NNE 4.6 mph - N/A   Clear
8:56 AM -16.6 °F - -20.2 °F 84% 29.71 in 10.0 mi Calm Calm - N/A   Clear
9:16 AM -18.4 °F -31.4 °F -23.8 °F 76% 29.71 in 10.0 mi NNE 4.6 mph - N/A   Clear
9:36 AM -18.4 °F -36.6 °F -23.8 °F 76% 29.71 in 10.0 mi NE 8.1 mph - N/A   Clear
9:56 AM -18.4 °F -35.1 °F -20.2 °F 91% 29.72 in 10.0 mi NE 6.9 mph - N/A   Clear
10:16 AM -16.6 °F -32.9 °F -16.6 °F 100% 29.73 in 10.0 mi NE 6.9 mph - N/A   Clear
10:36 AM -16.6 °F -36.8 °F -23.8 °F 70% 29.72 in 10.0 mi NE 10.4 mph - N/A   Clear
10:56 AM -16.6 °F -31.3 °F -16.6 °F 100% 29.73 in 10.0 mi NE 5.8 mph - N/A   Clear
11:16 AM -16.6 °F -31.3 °F -22.0 °F 76% 29.74 in 10.0 mi NE 5.8 mph - N/A   Clear
11:36 AM -16.6 °F -34.4 °F -20.2 °F 84% 29.74 in 10.0 mi NE 8.1 mph - N/A   Clear
11:56 AM -16.6 °F -31.3 °F -16.6 °F 100% 29.75 in 10.0 mi NNE 5.8 mph - N/A   Clear
12:16 PM -14.8 °F -33.5 °F -18.4 °F 84% 29.75 in 10.0 mi NE 9.2 mph - N/A   Clear
12:36 PM -14.8 °F -29.1 °F -18.4 °F 84% 29.75 in 10.0 mi NE 5.8 mph - N/A   Clear
12:56 PM -16.6 °F -26.8 °F -20.2 °F 84% 29.76 in 10.0 mi ENE 3.5 mph - N/A   Clear
1:56 PM -14.8 °F -30.8 °F -14.8 °F 100% 29.75 in 10.0 mi ENE 6.9 mph - N/A   Clear
2:16 PM -14.8 °F -27.2 °F -20.2 °F 77% 29.75 in 10.0 mi NE 4.6 mph - N/A   Clear
2:36 PM -14.8 °F -30.8 °F -18.4 °F 84% 29.75 in 10.0 mi ENE 6.9 mph - N/A   Clear
2:56 PM -13.0 °F -30.0 °F -13.0 °F 100% 29.75 in 10.0 mi NE 8.1 mph - N/A   Clear
3:16 PM -14.8 °F -34.6 °F -23.8 °F 64% 29.75 in 10.0 mi ENE 10.4 mph - N/A   Clear
3:36 PM -14.8 °F -33.5 °F -16.6 °F 92% 29.75 in 10.0 mi ENE 9.2 mph - N/A   Clear
3:56 PM -14.8 °F -34.6 °F -18.4 °F 84% 29.74 in 10.0 mi ENE 10.4 mph - N/A   Scattered Clouds
4:16 PM -13.0 °F -31.3 °F -18.4 °F 77% 29.74 in 10.0 mi ENE 9.2 mph - N/A   Overcast
4:36 PM -11.2 °F -30.1 °F -11.2 °F 100% 29.73 in 10.0 mi ENE 10.4 mph - N/A   Overcast
4:56 PM -9.4 °F -27.9 °F -16.6 °F 71% 29.73 in 10.0 mi ENE 10.4 mph - N/A   Overcast
5:16 PM -7.6 °F -26.6 °F -7.6 °F 100% 29.73 in 10.0 mi ENE 11.5 mph - N/A   Overcast
5:36 PM -5.8 °F -23.4 °F -14.8 °F 65% 29.73 in 10.0 mi ENE 10.4 mph - N/A   Overcast
5:56 PM -5.8 °F -25.2 °F -7.6 °F 92% 29.72 in 10.0 mi ENE 12.7 mph - N/A   Overcast
6:16 PM -5.8 °F -27.5 °F -13.0 °F 71% 29.71 in 10.0 mi ENE 16.1 mph - N/A   Overcast
6:36 PM -5.8 °F -26.8 °F -11.2 °F 77% 29.71 in 10.0 mi ENE 15.0 mph - N/A   Overcast
6:56 PM -4.0 °F -24.5 °F -9.4 °F 78% 29.71 in 10.0 mi ENE 15.0 mph - N/A   Overcast
7:16 PM -4.0 °F -23.7 °F -7.6 °F 85% 29.72 in 10.0 mi ENE 13.8 mph - N/A   Overcast
7:36 PM -2.2 °F -22.2 °F -9.4 °F 71% 29.71 in 10.0 mi ENE 15.0 mph - N/A   Overcast
7:56 PM -2.2 °F -22.9 °F -7.6 °F 78% 29.71 in 10.0 mi ENE 16.1 mph - N/A   Overcast
8:16 PM -4.0 °F -25.8 °F -9.4 °F 78% 29.70 in 10.0 mi ENE 17.3 mph - N/A   Mostly Cloudy
8:36 PM -5.8 °F -26.8 °F -7.6 °F 92% 29.71 in 10.0 mi ENE 15.0 mph - N/A   Partly Cloudy
8:56 PM -5.8 °F -28.2 °F -9.4 °F 84% 29.70 in 10.0 mi ENE 17.3 mph - N/A   Clear
9:16 PM -5.8 °F -28.2 °F -9.4 °F 84% 29.70 in 10.0 mi ENE 17.3 mph - N/A   Clear
9:36 PM -5.8 °F -28.8 °F -9.4 °F 84% 29.70 in 10.0 mi ENE 18.4 mph - N/A   Clear
9:56 PM -5.8 °F -28.2 °F -9.4 °F 84% 29.70 in 10.0 mi ENE 17.3 mph - N/A   Clear
10:16 PM -5.8 °F -28.2 °F -9.4 °F 84% 29.71 in 10.0 mi ENE 17.3 mph - N/A   Clear
10:36 PM -5.8 °F -27.5 °F -11.2 °F 77% 29.71 in 10.0 mi ENE 16.1 mph - N/A   Partly Cloudy
10:56 PM -5.8 °F -26.8 °F -7.6 °F 92% 29.72 in 10.0 mi ENE 15.0 mph - N/A   Scattered Clouds
11:16 PM -2.2 °F -22.9 °F -7.6 °F 78% 29.71 in 10.0 mi ENE 16.1 mph - N/A   Overcast
11:36 PM -2.2 °F -22.9 °F -7.6 °F 78% 29.72 in 10.0 mi ENE 16.1 mph - N/A   Overcast
11:56 PM -0.4 °F -20.5 °F -5.8 °F 78% 29.72 in 10.0 mi ENE 16.1 mph - N/A   Overcast